• Join FlightAware (Why Join?)
  • Login
  • US Flag 
05:48AM EDT


 

Airport Tracker/Info


-or-


 

Live Flight TrackerFlight Track Log ✈ UPS219 ✈ 08-May-2012 ✈ KPHL - LFPG / CDG

Flight Track Log - Related Links

Times and Time Zones

All times are in EDT time to prevent confusion due to time zone crossing. See the UPS219 flight status page for this flight to view local times or setup timezone preferences in your user account.

Time Position Orientation Groundspeed Altitude Reporting Facility
EDT Latitude Longitude Course Direction KTS MPH feet Rate Location/Type
08:22AM 39.8747 -75.2172 75° East 187 215 1,300  Level FAA TRACON SMA TRACON (SMA)
08:23AM 39.8806 -75.1892 78° East 223 257 1,700 1,320 Climbing FAA TRACON SMA TRACON (SMA)
08:23AM 39.8850 -75.1625 78° East 253 291 2,200 1,920 Climbing FAA TRACON SMA TRACON (SMA)
08:23AM 39.8897 -75.1344 88° East 259 298 3,000 2,400 Climbing FAA TRACON SMA TRACON (SMA)
08:24AM 39.8906 -75.0994 102° East 266 306 3,800 2,100 Climbing FAA TRACON SMA TRACON (SMA)
08:24AM 39.8856 -75.0689 109° East 278 320 4,400 1,920 Climbing FAA TRACON SMA TRACON (SMA)
08:24AM 39.8778 -75.0397 109° East 281 323 5,100 1,920 Climbing FAA TRACON SMA TRACON (SMA)
08:25AM 39.8700 -75.0100 109° East 281 323 5,700 2,220 Climbing FAA TRACON SMA TRACON (SMA)
08:25AM 39.8600 -74.9725 108° East 284 327 6,600 2,400 Climbing FAA TRACON SMA TRACON (SMA)
08:25AM 39.8525 -74.9422 107° East 287 330 7,300 2,100 Climbing FAA TRACON SMA TRACON (SMA)
08:26AM 39.8431 -74.9031 110° East 293 337 8,000 2,100 Climbing FAA TRACON SMA TRACON (SMA)
08:26AM 39.8350 -74.8742 109° East 298 343 8,700 1,920 Climbing FAA TRACON SMA TRACON (SMA)
08:26AM 39.8258 -74.8389 110° East 300 345 9,300 1,800 Climbing FAA TRACON SMA TRACON (SMA)
08:27AM 39.8178 -74.8097 103° East 302 348 9,900 1,620 Climbing FAA TRACON SMA TRACON (SMA)
08:28AM 39.7955 -74.6816 84° East 357 411 11,500 1,500 Climbing FlightAware ADS-B
08:28AM 39.8007 -74.6144 83° East 390 449 12,200 1,260 Climbing FlightAware ADS-B
08:29AM 39.8079 -74.5392 84° East 423 487 12,800 1,320 Climbing FlightAware ADS-B
08:29AM 39.8147 -74.4606 87° East 447 514 13,600 1,260 Climbing FlightAware ADS-B
08:30AM 39.8176 -74.3769 90° East 450 518 14,100 1,620 Climbing FlightAware ADS-B
08:30AM 39.8178 -74.2935 90° East 455 524 15,300 2,400 Climbing FlightAware ADS-B
08:30AM 39.8178 -74.2492 84° East 462 532 16,000 2,340 Climbing FlightAware ADS-B
08:31AM 39.8194 -74.2291 71° East 465 535 16,200 2,160 Climbing FlightAware ADS-B
08:31AM 39.8415 -74.1438 67° East 474 545 17,400 2,400 Climbing FlightAware ADS-B
08:31AM 39.8472 -74.1266 64° Northeast 475 547 17,700 2,220 Climbing FlightAware ADS-B
08:32AM 39.8765 -74.0487 63° Northeast 482 555 18,800 2,100 Climbing FlightAware ADS-B
08:32AM 39.9081 -73.9668 64° Northeast 491 565 19,900 1,980 Climbing FlightAware ADS-B
08:33AM 39.9429 -73.8747 64° Northeast 501 577 21,000 1,920 Climbing FlightAware ADS-B
08:33AM 39.9835 -73.7653 64° Northeast 510 587 22,300 1,860 Climbing FlightAware ADS-B
08:34AM 40.0145 -73.6809 64° Northeast 515 593 23,200 1,680 Climbing FlightAware ADS-B
08:35AM 40.0508 -73.5814 64° Northeast 522 601 24,200 1,920 Climbing FlightAware ADS-B
08:35AM 40.0826 -73.4944 64° Northeast 522 601 25,300 2,340 Climbing FlightAware ADS-B
08:36AM 40.1163 -73.4022 65° Northeast 517 595 26,700 2,520 Climbing FlightAware ADS-B
08:36AM 40.1472 -73.3173 65° Northeast 508 585 28,000 2,220 Climbing FlightAware ADS-B
08:37AM 40.1790 -73.2299 64° Northeast 505 581 29,000 1,680 Climbing FlightAware ADS-B
08:37AM 40.2106 -73.1432 65° Northeast 504 580 29,800 1,560 Climbing FlightAware ADS-B
08:38AM 40.2407 -73.0600 65° Northeast 503 579 30,600 1,020 Climbing FlightAware ADS-B
08:38AM 40.2779 -72.9569 65° Northeast 504 580 31,000 300 Climbing FlightAware ADS-B
08:39AM 40.3078 -72.8740 65° Northeast 501 577 31,000  Level FlightAware ADS-B
08:39AM 40.3460 -72.7679 65° Northeast 501 577 31,000  Level FlightAware ADS-B
08:40AM 40.3913 -72.6407 65° Northeast 504 580 31,000  Level FlightAware ADS-B
08:41AM 40.4236 -72.5502 65° Northeast 506 582 31,000  Level FlightAware ADS-B
08:42AM 40.4787 -72.3950 65° Northeast 507 583 31,000  Level FlightAware ADS-B
08:43AM 40.5358 -72.2329 65° Northeast 508 585 31,000  Level FlightAware ADS-B
08:43AM 40.5704 -72.1342 69° East 508 585 31,000  Level FlightAware ADS-B
08:44AM 40.5867 -72.0794 63° Northeast 503 579 31,000  Level Boston Center
08:45AM 40.6508 -71.9122 66° East 503 579 31,000  Level Boston Center
08:47AM 40.7691 -71.5614 67° East 508 585 31,000  Level FlightAware ADS-B
08:48AM 40.8139 -71.4200 66° East 503 579 31,000  Level Boston Center
08:49AM 40.8708 -71.2517 66° East 498 573 31,000  Level Boston Center
08:50AM 40.9272 -71.0831 52° Northeast 498 573 31,000  Level Boston Center
08:51AM 41.0189 -70.9297 40° Northeast 490 564 31,000  Level Boston Center
08:52AM 41.1236 -70.8117 38° Northeast 482 555 31,000  Level Boston Center
08:53AM 41.2261 -70.7042 38° Northeast 476 548 31,000  Level Boston Center
08:54AM 41.3328 -70.5933 41° Northeast 481 554 31,000  Level Boston Center
08:55AM 41.4269 -70.4856 39° Northeast 481 554 31,000  Level Boston Center
08:56AM 41.5292 -70.3742 39° Northeast 481 554 31,000  Level Boston Center
08:57AM 41.6333 -70.2597 40° Northeast 481 554 31,000  Level Boston Center
08:58AM 41.7372 -70.1447 38° Northeast 486 559 31,000  Level Boston Center
08:59AM 41.8514 -70.0236 42° Northeast 476 548 31,000  Level Boston Center
09:00AM 41.9531 -69.9025 37° Northeast 482 555 31,000  Level Boston Center
09:01AM 42.0650 -69.7889 40° Northeast 495 570 31,000  Level Boston Center
09:02AM 42.1667 -69.6753 39° Northeast 495 570 31,000  Level Boston Center
09:03AM 42.2761 -69.5553 40° Northeast 485 558 31,000  Level Boston Center
09:04AM 42.3775 -69.4383 47° Northeast 480 552 31,000  Level Boston Center
09:05AM 42.4500 -69.3333 44° Northeast 480 552 31,000  Level Moncton Center
09:06AM 42.5500 -69.2000 36° Northeast 480 552 31,000  Level Moncton Center
09:07AM 42.6500 -69.1000 44° Northeast 480 552 31,000  Level Moncton Center
09:08AM 42.7500 -68.9667 39° Northeast 480 552 31,000  Level Moncton Center
09:09AM 42.8625 -68.8422 53° Northeast 479 551 31,000  Level Boston Center
09:10AM 42.9453 -68.6900 55° Northeast 485 558 31,000  Level Boston Center
09:12AM 43.1000 -68.3833 52° Northeast 500 575 31,000  Level Moncton Center
09:13AM 43.1875 -68.2278 54° Northeast 496 571 31,000  Level Boston Center
09:14AM 43.2675 -68.0767 55° Northeast 496 571 31,000  Level Boston Center
09:15AM 43.3469 -67.9225 54° Northeast 496 571 31,000  Level Boston Center
09:16AM 43.4283 -67.7678 55° Northeast 496 571 31,000  Level Boston Center
09:17AM 43.5053 -67.6156 54° Northeast 496 571 31,000  Level Boston Center
09:18AM 43.5881 -67.4569 55° Northeast 496 571 31,000  Level Boston Center
09:19AM 43.6667 -67.3011 55° Northeast 501 577 31,000  Level Boston Center
09:20AM 43.7453 -67.1450 61° Northeast 496 571 31,000  Level Boston Center
09:21AM 43.8167 -66.9667 53° Northeast 500 575 31,000  Level Moncton Center
09:22AM 43.9167 -66.7833 58° Northeast 500 575 31,000  Level Moncton Center
09:23AM 43.9833 -66.6333 55° Northeast 500 575 31,000  Level Moncton Center
09:24AM 44.0667 -66.4667 61° Northeast 500 575 31,000  Level Moncton Center
09:25AM 44.1333 -66.3000 49° Northeast 500 575 31,000  Level Moncton Center
09:26AM 44.2167 -66.1667 52° Northeast 500 575 31,000  Level Moncton Center
09:27AM 44.3000 -66.0167 55° Northeast 500 575 31,000  Level Moncton Center
09:28AM 44.3833 -65.8500 61° Northeast 490 564 31,000  Level Moncton Center
09:29AM 44.4500 -65.6833 55° Northeast 490 564 31,000  Level Moncton Center
09:30AM 44.5333 -65.5167 58° Northeast 490 564 31,000  Level Moncton Center
09:31AM 44.6000 -65.3667 55° Northeast 490 564 31,000  Level Moncton Center
09:32AM 44.6833 -65.2000 58° Northeast 480 552 31,000  Level Moncton Center
09:33AM 44.7500 -65.0500 52° Northeast 490 564 31,000  Level Moncton Center
09:34AM 44.8333 -64.9000 61° Northeast 480 552 31,000  Level Moncton Center
09:35AM 44.9000 -64.7333 58° Northeast 480 552 31,000  Level Moncton Center
09:36AM 44.9667 -64.5833 57° Northeast 480 552 31,000  Level Moncton Center
09:37AM 45.0500 -64.4000 58° Northeast 480 552 31,000  Level Moncton Center
09:38AM 45.1167 -64.2500 60° Northeast 480 552 31,000  Level Moncton Center
09:39AM 45.1833 -64.0833 55° Northeast 480 552 31,000  Level Moncton Center
09:40AM 45.2667 -63.9167 55° Northeast 480 552 31,000  Level Moncton Center
09:41AM 45.3333 -63.7833 58° Northeast 480 552 31,000  Level Moncton Center
09:42AM 45.4500 -63.5167 60° Northeast 480 552 31,000  Level Gander Center
09:43AM 45.5167 -63.3500 49° Northeast 480 552 31,000  Level Gander Center
09:44AM 45.6167 -63.1833 62° Northeast 480 552 31,000  Level Gander Center
09:45AM 45.6667 -63.0500 60° Northeast 480 552 31,000  Level Gander Center
09:46AM 45.7333 -62.8833 54° Northeast 480 552 31,000  Level Gander Center
09:47AM 45.8167 -62.7167 67° East 480 552 31,000  Level Gander Center
09:48AM 45.8667 -62.5500 54° Northeast 480 552 31,000  Level Gander Center
09:49AM 45.9500 -62.3833 54° Northeast 470 541 31,000  Level Gander Center
09:50AM 46.0167 -62.2500 57° Northeast 470 541 31,000  Level Gander Center
09:52AM 46.1667 -61.9167 57° Northeast 470 541 31,000  Level Gander Center
09:53AM 46.2333 -61.7667 60° Northeast 470 541 31,000  Level Gander Center
09:54AM 46.3000 -61.6000 60° Northeast 470 541 31,000  Level Gander Center
09:55AM 46.3667 -61.4333 60° Northeast 470 541 31,000  Level Gander Center
09:57AM 46.4667 -61.1833 60° Northeast 460 529 31,000  Level Gander Center
09:58AM 46.5333 -61.0167 70° East 460 529 31,000  Level Gander Center
09:59AM 46.5667 -60.8833 54° Northeast 460 529 31,000  Level Moncton Center
10:00AM 46.6500 -60.7167 57° Northeast 460 529 31,000  Level Moncton Center
10:01AM 46.7167 -60.5667 58° Northeast 460 529 31,000  Level Moncton Center
10:01AM 46.7667 -60.4500 72° East 460 529 31,000  Level Gander Center
10:02AM 46.8000 -60.3000 60° Northeast 460 529 31,000  Level Gander Center
10:03AM 46.8667 -60.1333 57° Northeast 460 529 31,000  Level Gander Center
10:04AM 46.9333 -59.9833 60° Northeast 460 529 31,000  Level Gander Center
10:05AM 47.0000 -59.8167 62° Northeast 460 529 31,000  Level Gander Center
10:06AM 47.0667 -59.6333 57° Northeast 460 529 31,000  Level Gander Center
10:07AM 47.1333 -59.4833 59° Northeast 460 529 31,000  Level Gander Center
10:08AM 47.2000 -59.3167 62° Northeast 460 529 31,000  Level Gander Center
10:09AM 47.2667 -59.1333 64° Northeast 480 552 31,000  Level Gander Center
10:10AM 47.3167 -58.9833 59° Northeast 460 529 31,000  Level Gander Center
10:11AM 47.3833 -58.8167 64° Northeast 460 529 31,000  Level Gander Center
10:13AM 47.4667 -58.5667 51° Northeast 470 541 31,000  Level Moncton Center
10:14AM 47.5500 -58.4167 76° East 470 541 31,000  Level Moncton Center
10:14AM 47.5667 -58.3167 62° Northeast 470 541 31,000  Level Gander Center
10:15AM 47.6333 -58.1333 62° Northeast 470 541 31,000  Level Gander Center
10:16AM 47.7000 -57.9500 56° Northeast 470 541 31,000  Level Gander Center
10:17AM 47.7667 -57.8000 68° East 470 541 31,000  Level Gander Center
10:18AM 47.8167 -57.6167 56° Northeast 470 541 31,000  Level Gander Center
10:19AM 47.8833 -57.4667 61° Northeast 460 529 31,000  Level Gander Center
10:20AM 47.9500 -57.2833 73° East 460 529 31,000  Level Gander Center
10:21AM 47.9833 -57.1167 61° Northeast 460 529 31,000  Level Gander Center
10:22AM 48.0500 -56.9333 68° East 470 541 31,000  Level Gander Center
10:23AM 48.1000 -56.7500 56° Northeast 470 541 31,000  Level Gander Center
10:24AM 48.1667 -56.6000 61° Northeast 470 541 31,000  Level Gander Center
10:25AM 48.2333 -56.4167 71° East 480 552 31,000  Level Gander Center
10:26AM 48.2833 -56.2000 66° East 480 552 31,000  Level Gander Center
10:27AM 48.3333 -56.0333 66° East 480 552 31,000  Level Gander Center
10:28AM 48.3833 -55.8667 63° Northeast 480 552 31,000  Level Gander Center
10:29AM 48.4500 -55.6667 66° East 480 552 31,000  Level Gander Center
10:30AM 48.5000 -55.5000 69° East 480 552 31,000  Level Gander Center
10:31AM 48.5500 -55.3000 61° Northeast 480 552 31,000  Level Gander Center
10:32AM 48.6167 -55.1167 68° East 480 552 31,000  Level Gander Center
10:33AM 48.6667 -54.9333 65° Northeast 470 541 31,000  Level Gander Center
10:34AM 48.7167 -54.7667 67° East 470 541 31,000  Level Gander Center
10:35AM 48.7667 -54.5833 67° East 470 541 31,000  Level Gander Center
10:36AM 48.8167 -54.4000 61° Northeast 470 541 31,000  Level Gander Center
10:37AM 48.8833 -54.2167 74° East 470 541 31,000  Level Gander Center
10:38AM 48.9167 -54.0333 69° East 470 541 31,000 -600 Level Gander Center
10:39AM 48.9667 -53.8333 56° Northeast 470 541 29,900 -1,020 Descending Gander Center
10:40AM 49.0333 -53.6833 74° East 470 541 29,000 -480 Descending Gander Center
10:41AM 49.0667 -53.5000 69° East 470 541 29,000  Level Gander Center
10:42AM 49.1167 -53.3000 63° Northeast 480 552 29,000  Level Gander Center
10:43AM 49.1500 -53.2000 69° East 470 541 29,000  Level Gander Center
10:44AM 49.2000 -53.0000 67° East 480 552 29,000  Level Gander Center
10:45AM 49.2500 -52.8167 67° East 480 552 29,000  Level Gander Center
10:46AM 49.3000 -52.6333 65° Northeast 480 552 29,000  Level Gander Center
10:47AM 49.3500 -52.4667 69° East 480 552 29,000  Level Moncton Center
10:48AM 49.4000 -52.2667 78° East 480 552 29,000  Level Moncton Center
10:48AM 49.4167 -52.1500 73° East 470 541 29,000  Level Gander Center
10:49AM 49.4500 -51.9833 69° East 470 541 29,000  Level Gander Center
10:50AM 49.5000 -51.7833 61° Northeast 470 541 29,000  Level Gander Center
10:51AM 49.5667 -51.6000 69° East 470 541 29,000  Level Gander Center
10:52AM 49.6167 -51.4000 67° East 470 541 29,000  Level Gander Center
10:53AM 49.6667 -51.2167 74° East 460 529 29,000  Level Gander Center
10:54AM 49.7000 -51.0333 69° East 480 552 29,000  Level Gander Center
10:55AM 49.7500 -50.8333 65° Northeast 470 541 29,000  Level Gander Center
10:56AM 49.8000 -50.6667 70° East 460 529 29,000  Level Gander Center
10:57AM 49.8500 -50.4500 65° Northeast 480 552 29,000  Level Gander Center
10:58AM 49.9000 -50.2833 75° East 470 541 29,000  Level Gander Center
10:59AM 49.9333 -50.0833 74° East 470 541 29,000  Level Gander Center
11:00AM 49.9667 -49.9000 66° East 470 541 29,000  Level Gander Center
11:01AM 50.0000 -49.7833 80° East 480 552 29,000  Level Gander Center
11:02AM 50.0333 -49.4833 81° East 470 541 29,000  Level Gander Center
11:03AM 50.0500 -49.3167 70° East 470 541 29,000  Level Gander Center
11:04AM 50.1000 -49.1000 90° East 460 529 29,000  Level Gander Center
11:05AM 50.1000 -48.8833 74° East 470 541 29,000  Level Gander Center
11:06AM 50.1333 -48.7000 77° East 480 552 29,000  Level Gander Center
11:07AM 50.1500 -48.5833 78° East 470 541 29,000  Level Gander Center
11:09AM 50.2000 -48.2000 78° East 470 541 29,000  Level Gander Center
11:18AM 50.4374 -46.3173 68° East  Level FlightAware Approximate
11:19AM 50.4833 -46.1354 75° East  Level FlightAware Approximate
11:20AM 50.5168 -45.9347 75° East  Level FlightAware Approximate
11:21AM 50.5500 -45.7337 76° East  Level FlightAware Approximate
11:22AM 50.5828 -45.5325 76° East  Level FlightAware Approximate
11:23AM 50.6153 -45.3309 76° East  Level FlightAware Approximate
11:24AM 50.6474 -45.1291 76° East  Level FlightAware Approximate
11:25AM 50.6792 -44.9270 76° East  Level FlightAware Approximate
11:26AM 50.7107 -44.7246 76° East  Level FlightAware Approximate
11:27AM 50.7417 -44.5220 76° East  Level FlightAware Approximate
11:28AM 50.7725 -44.3191 77° East  Level FlightAware Approximate
11:29AM 50.8029 -44.1159 77° East  Level FlightAware Approximate
11:30AM 50.8329 -43.9125 77° East  Level FlightAware Approximate
11:31AM 50.8626 -43.7088 77° East  Level FlightAware Approximate
11:32AM 50.8919 -43.5048 77° East  Level FlightAware Approximate
11:33AM 50.9209 -43.3006 77° East  Level FlightAware Approximate
11:34AM 50.9495 -43.0962 78° East  Level FlightAware Approximate
11:35AM 50.9777 -42.8915 78° East  Level FlightAware Approximate
11:36AM 51.0056 -42.6865 78° East  Level FlightAware Approximate
11:37AM 51.0331 -42.4813 78° East  Level FlightAware Approximate
11:38AM 51.0603 -42.2758 78° East  Level FlightAware Approximate
11:39AM 51.0871 -42.0702 78° East  Level FlightAware Approximate
11:40AM 51.1136 -41.8642 79° East  Level FlightAware Approximate
11:41AM 51.1397 -41.6581 79° East  Level FlightAware Approximate
11:42AM 51.1654 -41.4517 79° East  Level FlightAware Approximate
11:43AM 51.1908 -41.2451 79° East  Level FlightAware Approximate
11:44AM 51.2158 -41.0382 79° East  Level FlightAware Approximate
11:45AM 51.2404 -40.8312 79° East  Level FlightAware Approximate
11:46AM 51.2647 -40.6239 79° East  Level FlightAware Approximate
11:47AM 51.2886 -40.4164 80° East  Level FlightAware Approximate
11:48AM 51.3121 -40.2086 80° East  Level FlightAware Approximate
11:49AM 51.3353 -40.0007 80° East  Level FlightAware Approximate
11:50AM 51.3581 -39.7926 80° East  Level FlightAware Approximate
11:51AM 51.3805 -39.5842 80° East  Level FlightAware Approximate
11:52AM 51.4025 -39.3757 80° East  Level FlightAware Approximate
11:53AM 51.4242 -39.1669 81° East  Level FlightAware Approximate
11:54AM 51.4456 -38.9580 81° East  Level FlightAware Approximate
11:55AM 51.4665 -38.7489 81° East  Level FlightAware Approximate
11:56AM 51.4871 -38.5395 81° East  Level FlightAware Approximate
11:57AM 51.5073 -38.3300 81° East  Level FlightAware Approximate
11:58AM 51.5271 -38.1203 81° East  Level FlightAware Approximate
11:59AM 51.5466 -37.9104 82° East  Level FlightAware Approximate
12:00PM 51.5656 -37.7004 82° East  Level FlightAware Approximate
12:01PM 51.5843 -37.4902 82° East  Level FlightAware Approximate
12:02PM 51.6027 -37.2798 82° East  Level FlightAware Approximate
12:03PM 51.6206 -37.0692 82° East  Level FlightAware Approximate
12:04PM 51.6382 -36.8584 82° East  Level FlightAware Approximate
12:05PM 51.6554 -36.6475 83° East  Level FlightAware Approximate
12:06PM 51.6722 -36.4365 82° East  Level FlightAware Approximate
12:07PM 51.6903 -36.2256 82° East  Level FlightAware Approximate
12:08PM 51.7080 -36.0146 82° East  Level FlightAware Approximate
12:09PM 51.7253 -35.8034 83° East  Level FlightAware Approximate
12:10PM 51.7423 -35.5920 83° East  Level FlightAware Approximate
12:11PM 51.7589 -35.3805 83° East  Level FlightAware Approximate
12:12PM 51.7751 -35.1689 83° East  Level FlightAware Approximate
12:13PM 51.7909 -34.9571 83° East  Level FlightAware Approximate
12:14PM 51.8064 -34.7451 83° East  Level FlightAware Approximate
12:15PM 51.8214 -34.5330 84° East  Level FlightAware Approximate
12:16PM 51.8361 -34.3207 84° East  Level FlightAware Approximate
12:17PM 51.8504 -34.1084 84° East  Level FlightAware Approximate
12:18PM 51.8643 -33.8958 84° East  Level FlightAware Approximate
12:19PM 51.8778 -33.6832 84° East  Level FlightAware Approximate
12:20PM 51.8909 -33.4704 84° East  Level FlightAware Approximate
12:21PM 51.9037 -33.2575 85° East  Level FlightAware Approximate
12:22PM 51.9161 -33.0445 85° East  Level FlightAware Approximate
12:23PM 51.9281 -32.8314 85° East  Level FlightAware Approximate
12:24PM 51.9397 -32.6181 85° East  Level FlightAware Approximate
12:25PM 51.9509 -32.4048 85° East  Level FlightAware Approximate
12:26PM 51.9617 -32.1913 85° East  Level FlightAware Approximate
12:27PM 51.9722 -31.9778 86° East  Level FlightAware Approximate
12:28PM 51.9822 -31.7641 86° East  Level FlightAware Approximate
12:29PM 51.9919 -31.5504 86° East  Level FlightAware Approximate
12:30PM 52.0012 -31.3365 86° East  Level FlightAware Approximate
12:31PM 52.0101 -31.1226 86° East  Level FlightAware Approximate
12:32PM 52.0186 -30.9086 86° East  Level FlightAware Approximate
12:33PM 52.0267 -30.6945 87° East  Level FlightAware Approximate
12:34PM 52.0345 -30.4804 87° East  Level FlightAware Approximate
12:35PM 52.0418 -30.2661 87° East  Level FlightAware Approximate
12:36PM 52.0488 -30.0518 86° East  Level FlightAware Approximate
12:37PM 52.0567 -29.8376 87° East  Level FlightAware Approximate
12:38PM 52.0642 -29.6232 87° East  Level FlightAware Approximate
12:39PM 52.0713 -29.4088 87° East  Level FlightAware Approximate
12:40PM 52.0780 -29.1944 87° East  Level FlightAware Approximate
12:41PM 52.0844 -28.9799 87° East  Level FlightAware Approximate
12:42PM 52.0903 -28.7653 88° East  Level FlightAware Approximate
12:43PM 52.0959 -28.5506 88° East  Level FlightAware Approximate
12:44PM 52.1010 -28.3359 88° East  Level FlightAware Approximate
12:45PM 52.1058 -28.1212 88° East  Level FlightAware Approximate
12:46PM 52.1102 -27.9064 88° East  Level FlightAware Approximate
12:47PM 52.1142 -27.6916 88° East  Level FlightAware Approximate
12:48PM 52.1178 -27.4767 89° East  Level FlightAware Approximate
12:49PM 52.1210 -27.2618 89° East  Level FlightAware Approximate
12:50PM 52.1239 -27.0469 89° East  Level FlightAware Approximate
12:51PM 52.1263 -26.8319 89° East  Level FlightAware Approximate
12:52PM 52.1284 -26.6170 89° East  Level FlightAware Approximate
12:53PM 52.1300 -26.4020 89° East  Level FlightAware Approximate
12:54PM 52.1313 -26.1870 90° East  Level FlightAware Approximate
12:55PM 52.1322 -25.9720 90° East  Level FlightAware Approximate
12:56PM 52.1327 -25.7570 90° East  Level FlightAware Approximate
12:57PM 52.1328 -25.5419 90° East  Level FlightAware Approximate
12:58PM 52.1325 -25.3269 90° East  Level FlightAware Approximate
12:59PM 52.1318 -25.1119 104° East  Level FlightAware Approximate
01:00PM 52.1001 -24.9084 95° East  Level FlightAware Approximate
01:01PM 52.0883 -24.6944 95° East  Level FlightAware Approximate
01:02PM 52.0762 -24.4805 95° East  Level FlightAware Approximate
01:03PM 52.0637 -24.2668 96° East  Level FlightAware Approximate
01:04PM 52.0508 -24.0531 96° East  Level FlightAware Approximate
01:05PM 52.0375 -23.8396 96° East  Level FlightAware Approximate
01:06PM 52.0238 -23.6262 96° East  Level FlightAware Approximate
01:07PM 52.0097 -23.4130 96° East  Level FlightAware Approximate
01:08PM 51.9953 -23.1999 96° East  Level FlightAware Approximate
01:09PM 51.9805 -22.9869 97° East  Level FlightAware Approximate
01:10PM 51.9652 -22.7741 97° East  Level FlightAware Approximate
01:11PM 51.9496 -22.5614 97° East  Level FlightAware Approximate
01:12PM 51.9337 -22.3489 97° East  Level FlightAware Approximate
01:13PM 51.9173 -22.1365 97° East  Level FlightAware Approximate
01:14PM 51.9006 -21.9243 97° East  Level FlightAware Approximate
01:15PM 51.8834 -21.7122 98° East  Level FlightAware Approximate
01:16PM 51.8659 -21.5003 98° East  Level FlightAware Approximate
01:17PM 51.8480 -21.2886 98° East  Level FlightAware Approximate
01:18PM 51.8298 -21.0770 98° East  Level FlightAware Approximate
01:19PM 51.8111 -20.8656 98° East  Level FlightAware Approximate
01:20PM 51.7921 -20.6544 98° East  Level FlightAware Approximate
01:21PM 51.7727 -20.4434 99° East  Level FlightAware Approximate
01:22PM 51.7529 -20.2325 101° East  Level FlightAware Approximate
01:23PM 51.7267 -20.0236 102° East  Level FlightAware Approximate
01:24PM 51.7000 -19.8150 102° East  Level FlightAware Approximate
01:25PM 51.6730 -19.6066 102° East  Level FlightAware Approximate
01:26PM 51.6456 -19.3985 102° East  Level FlightAware Approximate
01:27PM 51.6179 -19.1906 102° East  Level FlightAware Approximate
01:28PM 51.5898 -18.9829 102° East  Level FlightAware Approximate
01:29PM 51.5613 -18.7755 103° East  Level FlightAware Approximate
01:30PM 51.5325 -18.5684 103° East  Level FlightAware Approximate
01:31PM 51.5033 -18.3616 103° East  Level FlightAware Approximate
01:32PM 51.4738 -18.1550 103° East  Level FlightAware Approximate
01:33PM 51.4438 -17.9487 103° East  Level FlightAware Approximate
01:34PM 51.4135 -17.7426 103° East  Level FlightAware Approximate
01:35PM 51.3829 -17.5368 104° East  Level FlightAware Approximate
01:36PM 51.3519 -17.3313 104° East  Level FlightAware Approximate
01:37PM 51.3205 -17.1261 104° East  Level FlightAware Approximate
01:38PM 51.2888 -16.9212 104° East  Level FlightAware Approximate
01:39PM 51.2567 -16.7165 104° East  Level FlightAware Approximate
01:40PM 51.2243 -16.5122 104° East  Level FlightAware Approximate
01:41PM 51.1915 -16.3081 104° East  Level FlightAware Approximate
01:42PM 51.1584 -16.1043 105° East  Level FlightAware Approximate
01:43PM 51.1249 -15.9008 105° East  Level FlightAware Approximate
01:44PM 51.0910 -15.6976 105° East  Level FlightAware Approximate
01:45PM 51.0568 -15.4948 105° East  Level FlightAware Approximate
01:46PM 51.0223 -15.2922 105° East  Level FlightAware Approximate
01:47PM 50.9874 -15.0899 105° East  Level FlightAware Approximate
01:48PM 50.9521 -14.8879 106° East  Level FlightAware Approximate
01:49PM 50.9165 -14.6862 106° East  Level FlightAware Approximate
01:50PM 50.8806 -14.4849 104° East  Level FlightAware Approximate
01:51PM 50.8495 -14.2816 104° East  Level FlightAware Approximate
01:52PM 50.8181 -14.0786 104° East  Level FlightAware Approximate
01:53PM 50.7863 -13.8759 104° East  Level FlightAware Approximate
01:54PM 50.7542 -13.6735 104° East  Level FlightAware Approximate
01:55PM 50.7217 -13.4714 104° East  Level FlightAware Approximate
01:56PM 50.6889 -13.2695 104° East  Level FlightAware Approximate
01:57PM 50.6557 -13.0679 105° East  Level FlightAware Approximate
01:58PM 50.6222 -12.8666 105° East  Level FlightAware Approximate
01:59PM 50.5884 -12.6656 105° East  Level FlightAware Approximate
02:00PM 50.5541 -12.4649 105° East  Level FlightAware Approximate
02:01PM 50.5196 -12.2645 88° East  Level FlightAware Approximate
02:02PM 50.5227 -12.0801 98° East  Level FlightAware Approximate
02:03PM 50.5052 -11.8743 98° East  Level FlightAware Approximate
02:04PM 50.4874 -11.6687 98° East  Level FlightAware Approximate
02:05PM 50.4692 -11.4633 98° East  Level FlightAware Approximate
02:06PM 50.4506 -11.2580 98° East  Level FlightAware Approximate
02:07PM 50.4317 -11.0529 98° East  Level FlightAware Approximate
02:08PM 50.4124 -10.8480 98° East  Level FlightAware Approximate
02:09PM 50.3928 -10.6432 99° East  Level FlightAware Approximate
02:10PM 50.3728 -10.4386 99° East  Level FlightAware Approximate
02:11PM 50.3524 -10.2342 99° East  Level FlightAware Approximate
02:12PM 50.3317 -10.0299 99° East  Level FlightAware Approximate
02:13PM 50.3106 -9.8259 99° East  Level FlightAware Approximate
02:14PM 50.2892 -9.6220 99° East  Level FlightAware Approximate
02:15PM 50.2674 -9.4183 100° East  Level FlightAware Approximate
02:16PM 50.2453 -9.2148 100° East  Level FlightAware Approximate
02:17PM 50.2228 -9.0114 100° East  Level FlightAware Approximate
02:18PM 50.1999 -8.8083 100° East  Level FlightAware Approximate
02:19PM 50.1767 -8.6054 100° East  Level FlightAware Approximate
02:20PM 50.1531 -8.4026 100° East  Level FlightAware Approximate
02:21PM 50.1292 -8.2001 101° East  Level FlightAware Approximate
02:22PM 50.1050 -7.9978 101° East  Level FlightAware Approximate
02:23PM 50.0803 -7.7956 101° East  Level FlightAware Approximate
02:24PM 50.0554 -7.5937 101° East  Level FlightAware Approximate
02:25PM 50.0300 -7.3920 95° East  Level FlightAware Approximate
02:26PM 50.0177 -7.1875 95° East  Level FlightAware Approximate
02:27PM 50.0050 -6.9830 96° East  Level FlightAware Approximate
02:28PM 49.9920 -6.7787 96° East  Level FlightAware Approximate
02:29PM 49.9785 -6.5745 96° East  Level FlightAware Approximate
02:30PM 49.9647 -6.3704 96° East  Level FlightAware Approximate
02:31PM 49.9506 -6.1664 96° East  Level FlightAware Approximate
02:32PM 49.9361 -5.9626 96° East  Level FlightAware Approximate
02:33PM 49.9213 -5.7588 97° East  Level FlightAware Approximate
02:34PM 49.9061 -5.5552 97° East  Level FlightAware Approximate
02:35PM 49.8905 -5.3517 97° East  Level FlightAware Approximate
02:36PM 49.8746 -5.1484 97° East  Level FlightAware Approximate
02:37PM 49.8583 -4.9452 97° East  Level FlightAware Approximate
02:38PM 49.8417 -4.7421 97° East  Level FlightAware Approximate
02:39PM 49.8247 -4.5392 97° East  Level FlightAware Approximate
02:40PM 49.8074 -4.3364 98° East  Level FlightAware Approximate
02:41PM 49.7897 -4.1338 98° East  Level FlightAware Approximate
02:42PM 49.7716 -3.9313 98° East  Level FlightAware Approximate
02:43PM 49.7532 -3.7290 98° East  Level FlightAware Approximate
02:44PM 49.7345 -3.5268 98° East  Level FlightAware Approximate
02:45PM 49.7154 -3.3247 98° East  Level FlightAware Approximate
02:46PM 49.6959 -3.1229 99° East  Level FlightAware Approximate
02:47PM 49.6761 -2.9212 99° East  Level FlightAware Approximate
02:48PM 49.6560 -2.7197 99° East  Level FlightAware Approximate
02:49PM 49.6355 -2.5183 99° East  Level FlightAware Approximate
02:50PM 49.6146 -2.3171 99° East  Level FlightAware Approximate
02:51PM 49.5934 -2.1161 99° East  Level FlightAware Approximate
02:52PM 49.5719 -1.9152 99° East  Level FlightAware Approximate
02:53PM 49.5500 -1.7146 100° East  Level FlightAware Approximate
02:54PM 49.5277 -1.5141 101° East  Level FlightAware Approximate
03:03PM 49.3000 0.2580 97° East  Level FlightAware Approximate
03:04PM 49.2841 0.4585 103° East  Level FlightAware Approximate
03:05PM 49.2543 0.6556 98° East  Level FlightAware Approximate
03:06PM 49.2368 0.8558 101° East  Level FlightAware Approximate
03:07PM 49.2108 1.0537 102° East  Level FlightAware Approximate
03:08PM 49.1837 1.2514 103° East  Level FlightAware Approximate
03:09PM 49.1537 1.4479 102° East  Level FlightAware Approximate
03:10PM 49.1263 1.6452 102° East  Level FlightAware Approximate
03:11PM 49.0988 1.8424 100° East  Level FlightAware Approximate
03:12PM 49.0756 2.0386 103° East  Level FlightAware Approximate
03:13PM 49.0459 2.2330 103° East  Level FlightAware Approximate
03:14PM 49.0150 2.4281 92° East  Level FlightAware Approximate
03:15PM 49.0112 2.6292 260° West  Level Estimated
03:16PM 49.0000 2.5333 41° Northeast  Level FlightAware Approximate
03:17PM 49.1002 2.6644 221° Southwest  Level Estimated
03:18PM 49.0000 2.5333 41° Northeast  Level FlightAware Approximate
03:19PM 49.1002 2.6644 221° Southwest  Level Estimated
03:20PM 49.0000 2.5333 41° Northeast  Level FlightAware Approximate
03:21PM 49.1002 2.6644 221° Southwest  Level Estimated
03:22PM 49.0000 2.5333 41° Northeast  Level FlightAware Approximate
03:23PM 49.1002 2.6644 221° Southwest  Level Estimated
03:24PM 49.0000 2.5333 41° Northeast  Level FlightAware Approximate
03:25PM 49.1002 2.6644 221° Southwest  Level Estimated
03:26PM 49.0000 2.5333 41° Northeast  Level FlightAware Approximate
03:27PM 49.1002 2.6644 221° Southwest  Level Estimated
03:28PM 49.0000 2.5333 41° Northeast  Level FlightAware Approximate
03:29PM 49.1002 2.6644 221° Southwest  Level Estimated
03:30PM 49.0000 2.5333 41° Northeast  Level FlightAware Approximate
03:31PM 49.1002 2.6644 41° Northeast  Level Estimated